User: anonymous   Login
Location: Unspecified
(0.0000°N, 0.0000°E)
Time: 19:06:58
(UTC+00:00)
Language:

STARLINK-34957 - Orbit

View from above orbital plane
View from above orbital plane
View from above satellite
View from above satellite

Ground track
Ground track

The orbit is defined by the following mean orbital elements,

1 65388U          26145.58197609 +.00000000 +00000-0 +50983-4 0 00005
2 65388  97.4532  16.9968 0002188  87.7802 272.3676 15.05656457    09
Epoch (UTC): 25 May 2026 13:58:02
Eccentricity: 0.0002188
inclination: 97.4532°
perigee height: 548 km
apogee height: 551 km
right ascension of ascending node: 16.9968°
argument of perigee: 87.7802°
revolutions per day: 15.05656457
mean anomaly at epoch: 272.3676°

The dashed part of the orbit path shows where the satellite is in the earth's shadow,  

DLR